Wind_Speed
9 9 10 10 9 8 8 7 6 6 5 4 4 4 3 3 3 3 3 4 5 6 6 5 5 5 5 5 6 7 7 6 7 7 7 6 6 5 5 6 6 6 6
9 8 9 9 9 8 7 7 6 5 4 4 3 3 2 2 2 2 3 3 4 5 6 5 5 5 6 6 6 7 7 7 7 7 7 7 6 6 6 7 7 7 7
11 10 8 8 8 8 7 6 6 5 4 4 3 3 2 0 1 2 2 3 4 5 6 5 5 6 6 6 6 6 7 7 7 8 8 8 7 8 8 9 9 9 9
12 10 7 7 8 7 7 6 5 6 5 4 4 3 3 3 2 2 3 3 4 5 5 5 6 6 7 7 7 7 7 7 7 8 8 9 8 9 9 9 10 10 10
11 9 8 7 7 7 6 5 5 5 5 5 4 3 2 2 3 4 4 4 4 5 5 4 4 5 6 7 8 8 8 8 9 9 9 10 10 10 10 10 11 11 11
11 10 9 9 7 7 7 6 5 6 5 5 5 4 4 3 3 4 4 5 6 5 5 4 5 6 7 7 8 9 9 9 9 9 10 11 11 12 12 12 13 13 14
13 12 11 11 9 8 8 7 6 6 6 6 6 6 5 5 5 6 6 6 6 7 7 7 7 8 8 9 9 10 10 10 10 10 11 12 12 12 13 13 14 15 16
14 13 12 11 10 9 9 8 8 8 8 8 7 7 7 7 7 8 8 8 9 9 9 9 9 9 10 10 11 11 11 12 13 13 13 13 14 14 14 15 15 16 17
15 14 14 14 12 12 11 11 10 10 10 9 9 9 9 9 9 9 9 9 10 10 11 11 11 12 12 12 12 13 13 14 15 15 15 16 16 16 17 17 18 18 18
15 15 15 14 12 12 13 12 11 11 11 11 11 11 11 11 11 11 11 11 11 12 12 13 13 13 14 15 15 15 16 16 17 17 18 18 18 18 19 20 21 21 21
17 16 15 15 14 13 14 14 13 13 13 13 13 13 13 12 13 13 14 14 14 14 15 15 15 16 16 16 17 18 18 19 19 20 20 20 20 21 22 22 23 23 23
17 16 15 15 16 16 16 15 14 15 15 16 16 16 16 15 15 15 16 17 17 17 17 18 18 18 18 19 19 19 20 20 21 21 22 22 23 23 24 24 24 24 24
18 18 18 18 18 18 18 18 18 18 18 19 18 18 18 18 18 18 19 19 19 20 20 20 20 20 20 20 21 21 22 22 22 23 23 24 24 24 25 26 26 26 26
21 20 20 20 21 22 22 22 22 22 22 22 21 21 21 21 21 21 21 22 22 22 22 22 22 21 21 22 22 23 23 24 24 24 25 25 25 26 27 27 28 28 28
24 24 24 23 23 23 24 24 24 25 25 24 24 24 24 24 24 23 24 24 24 24 24 24 23 23 22 22 23 24 25 25 26 26 27 27 27 28 29 28 28 28 29
27 27 26 26 26 26 26 26 26 26 26 27 27 27 27 27 27 26 26 26 26 26 26 26 26 26 25 25 25 25 25 26 27 28 28 27 28 29 29 29 30 30 30
28 28 28 29 29 30 29 29 29 29 29 29 29 30 30 30 29 28 29 28 29 29 29 29 29 28 28 28 27 27 27 28 29 29 29 29 29 30 30 30 31 31 31
31 31 31 31 31 31 31 32 32 32 32 32 31 32 31 31 32 32 31 31 31 31 31 30 30 29 29 30 30 29 30 31 30 30 30 30 30 31 31 31 31 32 33
32 32 32 32 32 32 33 34 34 34 34 34 33 33 33 33 33 33 33 33 33 32 32 32 31 31 31 31 31 31 31 31 31 31 31 32 31 32 33 33 33 33 33
32 33 33 33 33 34 34 34 34 34 34 34 34 35 34 34 34 34 34 34 33 33 33 33 33 33 32 32 32 33 32 32 31 32 33 33 33 34 35 34 33 33 33
33 33 34 34 34 34 35 35 35 34 34 34 35 35 35 35 35 35 36 36 35 35 35 35 35 35 35 34 33 33 33 33 33 34 33 34 35 35 36 36 35 33 33
34 35 34 34 34 34 35 35 34 34 34 34 34 35 36 37 37 37 37 37 36 37 37 38 37 37 36 36 36 35 35 35 35 35 35 35 35 36 36 36 35 35 35
34 34 34 34 33 34 34 34 35 34 35 35 35 36 36 37 38 38 37 37 36 36 37 38 37 37 37 38 37 36 36 36 36 36 36 36 36 36 36 36 35 36 36
33 34 34 34 35 35 34 33 34 34 34 34 34 34 35 36 36 37 38 37 37 37 37 37 37 36 36 36 36 37 36 36 36 37 36 36 36 36 36 36 36 37 37
33 34 35 34 33 33 32 32 32 34 34 34 35 35 35 35 36 36 37 37 37 37 37 37 36 36 36 36 36 37 37 37 36 36 37 37 36 35 35 36 36 36 36
34 34 33 33 33 33 33 32 33 34 34 34 34 34 34 35 35 35 35 36 37 37 36 36 35 35 36 36 36 36 36 36 36 36 35 35 35 35 35 35 35 35 35
Wind_Direction
7 13 19 22 22 23 25 28 29 36 42 54 58 59 73 101 127 149 161 178 183 182 185 190 195 198 205 214 218 217 213 216 223 229 231 238 242 245 256 262 268 279 278
351 357 8 13 14 17 18 20 18 17 23 35 33 29 42 74 99 144 173 192 193 194 202 211 210 210 213 221 226 220 218 222 230 234 236 242 246 249 259 262 263 265 269
336 337 348 358 1 7 7 5 3 4 11 13 354 339 339 320 154 170 185 201 198 205 207 214 220 218 222 228 224 226 227 226 231 237 244 255 252 254 260 263 262 263 266
329 331 339 345 348 354 356 356 358 355 349 342 337 320 295 270 240 225 227 228 229 228 223 225 228 228 229 228 232 235 237 240 244 245 248 254 257 259 263 263 265 268 273
316 317 321 326 331 337 339 338 338 341 339 332 320 311 303 280 255 247 246 251 248 246 242 233 225 226 232 235 240 239 248 251 254 254 255 257 260 265 267 267 270 272 272
306 302 303 302 305 315 320 321 320 318 318 317 317 309 294 281 269 260 262 262 257 252 249 249 247 246 244 244 246 249 253 256 258 259 262 266 267 270 269 270 274 274 278
293 294 296 295 287 294 301 302 305 305 304 303 302 300 295 283 272 267 265 268 263 258 257 254 254 251 247 250 254 256 257 258 260 262 264 269 271 273 274 274 278 279 279
288 287 289 289 288 286 285 287 291 294 295 295 292 292 291 284 273 268 266 266 265 264 263 262 260 259 258 259 259 259 260 262 262 263 265 269 273 276 277 278 281 282 281
283 288 293 294 285 286 283 278 280 282 286 288 288 288 287 285 278 273 270 271 267 266 265 264 264 265 265 265 264 262 262 264 267 269 271 273 276 278 279 280 281 283 283
279 283 288 287 284 283 284 277 274 277 280 282 283 282 281 279 274 270 269 271 273 274 271 269 269 271 268 266 265 264 267 269 271 272 274 274 277 277 279 281 282 283 282
280 280 278 280 280 276 276 274 271 275 278 281 281 280 278 277 275 273 270 271 272 273 274 274 274 272 271 270 268 268 270 271 271 272 273 274 276 277 279 282 283 284 283
274 276 281 283 283 280 281 277 275 275 278 279 277 278 278 276 276 276 275 274 272 272 273 273 274 274 271 269 269 269 271 273 272 274 275 275 277 279 279 280 282 285 285
270 276 281 282 284 284 285 281 278 278 277 277 274 275 276 276 275 275 277 275 274 273 273 274 273 273 271 269 269 270 271 273 274 275 274 274 276 278 280 280 282 283 285
271 274 278 278 280 283 284 282 281 279 277 276 277 277 277 275 275 275 273 272 271 273 274 274 272 272 273 270 269 270 271 272 274 276 276 276 278 279 279 280 281 282 282
271 275 276 276 276 278 280 282 281 278 276 275 274 275 275 274 273 273 273 273 273 274 275 274 273 272 275 276 274 271 271 272 275 276 277 279 280 280 280 282 281 281 281
274 276 277 277 276 276 276 277 277 276 275 273 272 272 272 272 272 269 270 272 274 274 274 275 275 275 274 275 276 276 276 274 275 277 278 279 279 281 281 281 282 282 281
276 276 277 277 278 276 275 275 276 277 275 274 273 274 273 272 273 273 273 273 274 274 273 273 273 274 274 274 274 274 275 278 278 279 278 278 280 282 282 283 283 282 282
272 274 276 276 277 278 277 275 276 276 275 274 274 273 273 273 273 275 274 273 273 273 273 272 272 272 273 274 273 273 274 277 279 280 280 281 282 282 283 284 283 282 280
274 274 275 276 277 279 278 276 275 275 274 273 273 272 272 273 274 274 274 273 272 273 271 270 271 271 271 273 273 273 275 278 280 280 280 280 281 282 283 283 283 282 281
273 273 274 275 277 278 278 277 276 276 275 274 273 272 273 273 273 274 273 272 272 272 271 270 271 271 271 273 274 274 275 277 279 279 279 279 280 281 282 282 282 282 282
271 272 273 275 276 277 277 278 277 276 276 275 273 273 272 272 273 273 272 271 271 271 272 273 272 272 272 274 275 275 276 277 278 280 280 281 282 281 280 281 280 281 281
272 273 273 274 276 276 276 277 276 276 276 274 272 272 272 272 272 271 271 270 271 272 273 272 273 272 273 274 275 277 278 278 279 280 280 281 283 281 281 281 282 282 282
273 273 273 273 275 275 276 275 275 274 274 274 273 272 271 271 271 271 270 269 270 271 272 273 274 275 275 275 276 277 279 279 277 278 279 280 281 281 281 281 281 281 282
273 275 275 276 275 275 277 277 275 274 274 274 273 273 273 272 272 273 272 271 271 271 272 273 273 274 275 276 277 277 278 279 279 278 277 279 280 280 280 280 280 281 281
274 275 277 278 277 276 275 276 276 276 276 275 274 273 272 273 273 273 272 272 272 273 272 273 274 274 274 276 276 277 278 279 279 278 277 278 278 279 279 280 281 281 282
276 277 277 276 277 278 277 276 275 275 275 275 274 273 273 273 273 274 273 272 273 274 274 273 274 274 274 275 276 277 278 279 279 278 277 276 277 277 278 279 280 280 281
Height
5906 5905 5904 5902 5900 5899 5898 5897 5896 5896 5895 5894 5894 5894 5894 5893 5893 5894 5894 5895 5896 5896 5897 5898 5899 5899 5900 5900 5900 5901 5901 5901 5902 5902 5902 5902 5902 5902 5902 5902 5902 5901 5901
5905 5905 5904 5902 5901 5899 5898 5897 5896 5896 5895 5895 5895 5894 5894 5894 5894 5894 5894 5895 5895 5896 5897 5897 5897 5898 5898 5899 5899 5899 5899 5899 5900 5900 5900 5901 5901 5900 5901 5900 5900 5900 5899
5905 5904 5903 5902 5900 5899 5898 5897 5896 5896 5895 5895 5894 5894 5894 5894 5894 5894 5894 5894 5894 5895 5895 5895 5895 5896 5897 5897 5897 5898 5898 5898 5898 5898 5899 5899 5898 5899 5899 5898 5898 5898 5897
5903 5902 5902 5901 5900 5899 5898 5897 5896 5896 5895 5894 5894 5894 5893 5893 5893 5893 5893 5893 5893 5893 5893 5893 5893 5894 5895 5895 5895 5896 5896 5896 5896 5896 5896 5897 5896 5896 5896 5896 5896 5895 5895
5901 5900 5899 5899 5898 5898 5897 5896 5896 5895 5894 5894 5893 5893 5892 5891 5891 5891 5891 5892 5892 5892 5891 5891 5891 5892 5892 5893 5893 5893 5893 5893 5893 5893 5893 5893 5893 5893 5894 5893 5893 5892 5892
5898 5898 5897 5896 5896 5896 5895 5895 5895 5894 5893 5892 5892 5891 5891 5890 5890 5889 5890 5890 5890 5890 5890 5890 5890 5890 5890 5890 5890 5890 5890 5890 5890 5890 5890 5890 5890 5890 5889 5890 5889 5889 5888
5895 5895 5895 5893 5892 5892 5893 5893 5893 5892 5892 5891 5890 5889 5889 5888 5888 5887 5887 5887 5887 5888 5888 5887 5887 5888 5888 5888 5887 5887 5887 5887 5887 5887 5887 5886 5886 5886 5886 5886 5885 5885 5885
5892 5892 5891 5890 5889 5889 5890 5890 5890 5890 5889 5888 5888 5887 5887 5886 5886 5885 5885 5885 5885 5885 5885 5885 5885 5885 5885 5885 5884 5884 5884 5884 5884 5883 5883 5882 5882 5882 5881 5881 5881 5881 5880
5888 5888 5888 5888 5887 5887 5887 5887 5887 5887 5886 5886 5885 5885 5884 5883 5882 5882 5882 5882 5882 5881 5881 5881 5882 5881 5881 5881 5881 5881 5880 5880 5880 5879 5879 5878 5878 5877 5877 5877 5876 5876 5875
5884 5884 5884 5884 5884 5884 5883 5883 5883 5883 5883 5883 5882 5881 5881 5880 5879 5879 5879 5878 5878 5878 5877 5877 5877 5877 5877 5877 5877 5876 5876 5876 5875 5875 5874 5873 5873 5873 5872 5871 5871 5870 5870
5879 5879 5880 5880 5879 5879 5879 5879 5878 5879 5878 5878 5878 5878 5877 5876 5876 5875 5874 5874 5874 5874 5873 5873 5873 5872 5872 5872 5872 5871 5871 5870 5870 5869 5869 5868 5868 5867 5866 5865 5865 5864 5863
5875 5874 5874 5875 5875 5874 5874 5873 5873 5874 5873 5873 5873 5872 5872 5871 5870 5870 5869 5869 5869 5868 5868 5868 5867 5867 5867 5866 5866 5866 5865 5864 5864 5863 5862 5862 5861 5861 5860 5859 5858 5857 5856
5870 5869 5869 5870 5870 5869 5869 5868 5868 5868 5868 5868 5867 5866 5866 5865 5864 5864 5863 5863 5863 5863 5862 5861 5861 5861 5860 5860 5860 5859 5858 5858 5857 5857 5856 5855 5854 5853 5853 5852 5851 5850 5849
5863 5863 5863 5864 5864 5864 5863 5863 5863 5863 5862 5862 5861 5860 5859 5858 5858 5857 5857 5857 5856 5856 5855 5854 5854 5854 5854 5853 5853 5852 5851 5851 5850 5849 5848 5847 5846 5846 5845 5844 5843 5842 5841
5856 5856 5857 5857 5858 5857 5857 5856 5856 5856 5855 5854 5853 5853 5852 5851 5850 5850 5850 5849 5849 5848 5847 5847 5847 5847 5847 5846 5845 5844 5844 5843 5843 5842 5840 5840 5839 5838 5837 5836 5834 5833 5832
5849 5849 5849 5849 5850 5850 5849 5849 5848 5848 5847 5846 5845 5844 5843 5842 5841 5841 5841 5841 5841 5840 5839 5839 5839 5839 5839 5838 5838 5837 5836 5835 5834 5834 5833 5832 5831 5830 5828 5827 5826 5825 5823
5841 5841 5841 5841 5841 5840 5840 5840 5839 5839 5839 5838 5837 5836 5834 5833 5833 5833 5833 5832 5832 5832 5831 5831 5831 5830 5830 5830 5829 5828 5828 5827 5826 5825 5824 5823 5822 5820 5819 5818 5816 5815 5814
5833 5833 5833 5832 5831 5831 5830 5829 5829 5829 5829 5828 5827 5826 5825 5825 5824 5824 5824 5823 5823 5823 5822 5822 5821 5821 5821 5821 5821 5820 5818 5818 5817 5816 5815 5814 5813 5811 5810 5808 5807 5805 5804
5824 5824 5823 5823 5822 5822 5821 5820 5819 5818 5818 5817 5817 5816 5815 5815 5815 5814 5814 5814 5814 5813 5813 5812 5812 5812 5812 5811 5811 5810 5810 5809 5808 5807 5806 5805 5803 5802 5800 5798 5797 5795 5793
5815 5814 5814 5813 5812 5812 5811 5810 5809 5808 5807 5806 5806 5806 5805 5805 5805 5804 5804 5803 5803 5803 5803 5802 5802 5802 5802 5801 5801 5800 5800 5800 5799 5797 5796 5795 5794 5792 5790 5788 5787 5785 5784
5805 5805 5804 5804 5803 5802 5801 5800 5799 5798 5798 5797 5796 5795 5795 5795 5794 5794 5793 5793 5792 5793 5793 5792 5792 5792 5792 5791 5791 5790 5789 5789 5788 5787 5786 5785 5783 5782 5780 5778 5777 5775 5773
5795 5795 5794 5794 5793 5791 5790 5789 5788 5788 5787 5786 5785 5784 5784 5784 5784 5783 5782 5782 5782 5782 5782 5782 5782 5782 5782 5781 5780 5779 5779 5779 5778 5777 5776 5774 5772 5771 5769 5767 5766 5764 5763
5785 5784 5784 5783 5782 5781 5780 5779 5778 5777 5776 5775 5775 5774 5773 5773 5772 5772 5771 5771 5771 5771 5771 5771 5772 5772 5771 5771 5770 5769 5769 5768 5767 5766 5765 5763 5761 5760 5758 5757 5755 5754 5752
5775 5774 5773 5772 5771 5770 5769 5768 5767 5766 5765 5765 5764 5763 5763 5762 5762 5761 5760 5760 5761 5760 5760 5760 5760 5760 5760 5760 5759 5758 5758 5757 5756 5755 5754 5752 5751 5749 5747 5746 5744 5742 5740
5765 5764 5763 5762 5760 5759 5758 5757 5757 5756 5755 5754 5754 5753 5752 5751 5750 5750 5749 5749 5750 5750 5750 5750 5750 5749 5749 5749 5748 5747 5747 5746 5745 5744 5742 5741 5740 5738 5737 5735 5733 5731 5729
5755 5754 5753 5752 5751 5750 5749 5748 5747 5746 5745 5744 5743 5741 5741 5740 5740 5739 5739 5739 5739 5739 5738 5738 5738 5738 5738 5737 5736 5736 5735 5734 5733 5732 5731 5730 5728 5727 5725 5723 5721 5719 5718